DIRECTV 5 (TEMPO 1)

Last updated on Mon Oct 20 2025 00:02:45 GMT+0000 (Coordinated Universal Time)

1 27426U 02023A 25292.03140949 -.00000057 00000+0 00000+0 0 9999 2 27426 4.2587 78.3088 0003556 145.2818 65.3775 1.00272338 85700
UTC large
Height (km)
Speed (km/s)
/
Latitude / Longitude
Inclination (degrees)
Orbital Period (minutes)
Azimuth
Elevation
Range (km)
Doppler Factor

Next 0 passes for location: London (51.5072 / 0.1276)

Sorry there are no passes over London.